Regional Weather Roundup
Issued by NWS Green Bay, WI

Home | Current Version | Previous Version | Graphics & Text | Print | Product List | Glossary Off
Versions: 1 2 3 4 5 6 7 8 9 10 11 12 13 14 15 16 17 18 19 20 21 22 23 24 25 26 27 28 29 30 31 32 33 34 35 36 37 38 39 40 41 42 43 44 45 46 47 48 49 50

000
ASUS43 KGRB 301300
RWRGRB

NORTH-CENTRAL AND NORTHEAST WISCONSIN REGIONAL WEATHER ROUNDUP
NATIONAL WEATHER SERVICE GREEN BAY WI
800 AM CDT SUN APR 30 2017

WIZ005-009-010>012-018-019-301400-
NORTH CENTRAL WISCONSIN

CITY           SKY/WX    TMP DP  RH WIND       PRES   REMARKS
IRONWOOD       CLOUDY    38  21  50 E12       30.13F
MANITOWISH WTR NOT AVBL
ARBOR VITAE    NOT AVBL
EAGLE RIVER    NOT AVBL
LAND O LAKES   NOT AVBL
RHINELANDER    PTSUNNY   41  27  57 E15       30.09F
PHILLIPS       NOT AVBL
ANTIGO         NOT AVBL
TOMAHAWK       NOT AVBL
MERRILL        NOT AVBL
$$

WIZ013-073-301400-
NORTHEAST WISCONSIN

CITY           SKY/WX    TMP DP  RH WIND       PRES   REMARKS
IRON MOUNTAIN  CLOUDY    41  27  57 E9G20     30.13F
MARINETTE      CLOUDY    41  34  76 E15G25    30.14F
$$

WIZ017-030-035>037-045-301400-
CENTRAL WISCONSIN

CITY           SKY/WX    TMP DP  RH WIND       PRES   REMARKS
MEDFORD        NOT AVBL
WAUSAU         CLOUDY    40  29  64 E17G26    30.01F
MOSINEE        CLOUDY    39  30  70 E14G23    30.04F
MARSHFIELD     CLOUDY    40  29  64 E17G29    29.99F
WISC RAPIDS    CLOUDY    40  32  73 E16G28    29.99F
STEVENS POINT  NOT AVBL
WAUPACA        CLOUDY    41  37  85 NE9G20    30.03F FOG
SHAWANO        NOT AVBL
CLINTONVILLE   NOT AVBL
WAUTOMA        CLOUDY    39  37  92 NE17G25   29.98F FOG
$$

WIZ038-039-048-051-301400-
FOX VALLEY

CITY           SKY/WX    TMP DP  RH WIND       PRES   REMARKS
NWS GREEN BAY  CLOUDY    41  40  96 NE21G29   30.05F FOG
APPLETON       CLOUDY    39  37  93 NE17G25   30.01F FOG
OSHKOSH        CLOUDY    40  37  89 NE20G29   29.99F
FOND DU LAC    CLOUDY    40  37  89 E13       29.98F FOG
$$

WIZ022-050-052-301400-
EAST CENTRAL WISCONSIN

CITY           SKY/WX    TMP DP  RH WIND       PRES   REMARKS
EPHRAIM        NOT AVBL
WASHINGTON ISL CLOUDY    39  31  73 E10G17    30.15S
STURGEON BAY   CLOUDY    39  36  89 E14       30.11F FOG
MANITOWOC      NOT AVBL
SHEBOYGAN      LGT RAIN  40  38  93 NE21G31   30.00F FOG
$$

LMZ563-521-522-541>543-301400-
LAKESHORE

STATION/POSITION TIME  TEMP    WIND        PRES    VSBY  WAVE
                       AIR SEA DIR/SP/G                  HT/PER
                 (UTC) (F)     (DEG/KT/KT) (MB)    (MI)  (FT/S)
SHEBOYGAN LKSHOR 1200   39      30/ 23/ 26 1017.3F
KEWAUNEE LKSHORE 1230   39      50/ 16/ 20 1018.5R
NORTHPORT PIER   1240   40      70/ 19/ 24 1021.0F
N MID LAKE BUOY  1150   39 37   80/ 19/ 21 1023.0F         2/ 4
SISTER BAY LKSHO 1206   41     110/ 12/ 22   N/A
CHAMBERS ISLAND  1240   40      50/ 12/ 20 1020.3S
MENOMINEE LKSHOR 1230   42      60/ 18/ 23 1019.8F
$$




USA.gov is the U.S. government's official web portal to all federal, state and local government web resources and services.